sat.trackr.live / text

‹ back to catalog

STARLINK-5791

NORAD 57146 · 2023-090AX

PAYLOAD ACTIVE UNKNOWN

§ Identity

Operator
Country
US
Launch date
2023-06-23
Launch site
AFETR
Launch vehicle
Mass (kg)
RCS (m²)

Purposes: comms

External: N2YO · Heavens-Above · Gunter

§ Orbital elements

Epoch: 2026-05-25T04:23:04.993152Z

Period
94.27 min
Inclination
43.0032°
Eccentricity
0.0001856
Mean motion
15.27577255 rev/d
Perigee alt
481.8 km
Apogee alt
484.3 km
Semi-major
6,861.2 km
B*
2.5305e-5
RAAN
191.2031°
Arg perigee
277.5172°
Mean anomaly
82.5469°
Rev number
16,205

§ Raw data

STARLINK-57911 57146U 23090AX  26145.18269668  .00000434  00000+0  25305-4 0  99902 57146  43.0032 191.2031 0001856 277.5172  82.5469 15.27577255162059

JSON: /api/v1/satellites/57146 · /tle

For live sub-satellite position, see the globe view (requires WebGL).

§ Visibility from observer

Set your observer location to see the next 7 days of passes ≥ 10°. The values pass through the URL so the page stays shareable.

No JS? Fill the form by hand. The geolocation button needs JavaScript.